This demonstration page uses our WeatherBlox Daily Observations layout. Learn more.

Hourly Observations for December 19, 2019

Temp ( °F °C ) Dew Point ( °F °C ) Humidity (%) Winds ( mph kmh ) Pressure ( in mb ) Visibility ( mi km ) Precip ( " mm )
12:54 am 00:54 Clear 26 -3.3 21 -6.1 81 81 SSW 6 9 30.13 1020 10 16.0934 0 0
1:54 am 01:54 Clear 23 -5 19 -7.2 85 85 Calm 30.14 1021 10 16.0934 0 0
2:54 am 02:54 Clear 22 -5.6 18 -7.8 85 85 Calm 30.14 1021 10 16.0934 0 0
3:54 am 03:54 Clear 22 -5.6 17 -8.3 82 82 Calm 30.13 1020 10 16.0934 0 0
4:54 am 04:54 Clear 26 -3.3 20 -6.7 78 78 SSE 3 6 30.13 1020 10 16.0934 0 0
5:54 am 05:54 Clear 22 -5.6 18 -7.8 85 85 S 5 7 30.13 1020 10 16.0934 0 0
6:54 am 06:54 Clear 25 -3.9 19 -7.2 78 78 Calm 30.14 1021 10 16.0934 0 0
7:54 am 07:54 Sunny 21 -6.1 17 -8.3 85 85 SSE 6 9 30.14 1021 10 16.0934 0 0
8:54 am 08:54 Sunny 27 -2.8 22 -5.6 81 81 ESE 3 6 30.15 1021 10 16.0934 0 0
9:54 am 09:54 Sunny 31 -0.6 24 -4.4 76 76 SSE 5 7 30.16 1021 10 16.0934 0 0
10:54 am 10:54 Sunny 39 3.9 23 -5 53 53 SSW 8 13 30.15 1021 10 16.0934 0 0
11:54 am 11:54 Sunny 44 6.7 23 -5 43 43 S 9 15 30.11 1020 10 16.0934 0 0
12:54 pm 12:54 Sunny 47 8.3 25 -3.9 42 42 S 10 17 30.09 1019 10 16.0934 0 0
1:54 pm 13:54 Sunny 50 10 25 -3.9 38 38 S 12 19 30.07 1018 10 16.0934 0 0
2:54 pm 14:54 Sunny 51 10.6 23 -5 33 33 S 12 19 30.06 1018 10 16.0934 0 0
3:54 pm 15:54 Sunny 47 8.3 22 -5.6 37 37 S 16 26 30.06 1018 10 16.0934 0 0
4:54 pm 16:54 Sunny 39 3.9 22 -5.6 50 50 S 14 22 30.08 1019 10 16.0934 0 0
5:54 pm 17:54 Clear 35 1.7 21 -6.1 57 57 S 9 15 30.1 1019 10 16.0934 0 0
6:54 pm 18:54 Clear 33 0.6 21 -6.1 61 61 S 9 15 30.11 1020 10 16.0934 0 0
7:54 pm 19:54 Clear 37 2.8 23 -5 57 57 S 12 19 30.12 1020 10 16.0934 0 0
8:54 pm 20:54 Clear 36 2.2 23 -5 59 59 S 10 17 30.12 1020 10 16.0934 0 0
9:54 pm 21:54 Clear 34 1.1 22 -5.6 61 61 S 7 11 30.15 1021 10 16.0934 0 0
10:54 pm 22:54 Clear 36 2.2 23 -5 59 59 S 10 17 30.15 1021 10 16.0934 0 0
11:54 pm 23:54 Clear 34 1.1 20 -6.7 56 56 SSE 8 13 30.15 1021 10 16.0934 0 0

Powered by AerisWeather